Wind_Speed
27 30 33 34 31 29 31 32 34 33 32 33 33 35 35 33 34 41 39 35 33 37 36 33 33 36 33 24 19 15 13 11 8 6 7 10 12 13 15 15 15 15 15
23 24 27 26 25 24 26 27 27 32 27 29 31 33 33 35 33 33 30 31 33 32 36 32 34 38 36 28 20 18 14 8 11 12 10 9 10 14 16 18 18 18 19
26 27 24 20 24 25 19 21 22 28 30 31 33 31 30 30 27 23 27 38 34 39 39 40 39 38 42 39 28 25 22 15 8 9 11 14 16 12 12 15 19 22 22
26 26 24 23 26 32 32 26 23 25 28 28 30 31 30 33 28 23 29 30 32 44 44 47 47 49 49 50 46 35 31 34 22 13 8 10 12 15 16 18 17 17 18
22 21 20 22 23 24 25 27 27 26 26 27 30 32 30 28 21 23 23 24 33 33 35 42 40 48 51 56 54 52 45 46 39 36 26 17 14 13 16 20 20 21 22
16 16 17 18 21 22 23 25 23 23 22 23 27 29 26 25 24 23 24 17 28 27 31 34 41 49 43 49 52 51 50 45 44 50 45 42 38 32 20 17 20 23 24
13 12 14 15 16 19 20 21 20 22 21 21 22 24 22 20 24 23 21 14 19 25 31 31 37 36 34 40 42 40 43 41 48 39 38 40 40 32 36 38 27 21 23
12 10 10 12 14 15 16 17 16 18 20 18 20 21 21 11 6 17 23 15 12 18 24 25 29 31 32 34 35 34 34 38 39 44 41 48 48 55 45 32 32 31 30
11 9 7 8 10 14 15 14 14 14 14 15 17 16 18 19 15 19 23 21 12 13 15 17 21 24 26 31 37 42 38 29 34 33 36 36 34 40 42 41 39 44 37
10 7 7 7 9 12 15 14 14 13 13 11 11 12 12 14 17 16 18 23 23 16 11 15 16 14 14 19 22 28 32 31 31 27 27 31 27 31 33 39 48 52 48
10 10 8 7 8 9 10 11 11 10 8 6 6 7 11 15 19 22 24 25 25 25 23 17 16 12 9 17 19 21 24 30 34 32 30 31 33 31 28 35 41 50 54
12 11 8 5 4 4 4 6 5 6 7 9 10 11 12 13 15 18 20 23 26 28 27 29 19 15 11 16 12 16 21 31 21 28 28 33 30 28 27 33 38 44 48
12 9 8 6 3 1 3 6 8 9 10 11 14 16 16 16 18 20 23 26 29 31 31 28 28 16 21 11 9 20 23 23 23 21 32 29 34 34 31 34 40 44 48
13 10 8 6 5 5 6 6 7 8 12 14 16 20 22 23 25 28 29 33 35 35 36 36 29 25 26 25 25 26 21 16 23 21 28 30 34 36 37 39 41 45 47
14 12 11 9 9 9 9 8 7 9 14 19 21 24 26 29 33 34 36 39 39 38 42 41 38 34 30 25 29 27 20 22 20 19 30 31 35 37 41 41 44 47 49
17 15 14 14 13 12 13 11 10 10 15 22 24 24 27 32 35 40 43 45 45 44 44 46 40 34 29 24 26 25 26 24 24 19 21 29 31 34 40 45 47 47 50
17 16 16 17 16 15 13 16 16 18 22 26 28 28 32 36 40 43 46 48 47 43 40 31 33 31 27 23 23 26 29 26 24 13 20 25 29 34 36 44 48 50 51
21 19 21 22 22 22 22 20 20 22 25 30 33 34 37 42 46 49 47 37 36 33 30 37 34 25 22 18 21 22 26 26 27 17 22 25 30 37 39 41 48 54 56
23 24 25 25 26 26 26 25 25 27 32 34 35 38 42 47 46 37 33 32 31 27 25 33 33 23 7 5 11 19 23 26 24 23 21 25 31 39 43 46 51 56 60
27 27 27 25 28 28 29 28 29 32 34 35 37 41 45 41 36 34 36 34 30 26 25 30 25 17 13 13 14 17 20 21 23 26 23 26 31 40 43 48 54 58 61
31 29 27 27 29 31 32 33 33 33 35 36 39 43 42 31 29 32 37 35 31 28 24 25 16 14 20 22 21 17 20 20 24 27 29 25 34 41 47 52 58 59 63
33 32 30 29 30 31 31 31 34 34 34 37 40 42 30 31 29 30 32 33 35 35 27 20 14 19 22 27 29 24 24 25 29 27 32 27 33 40 46 56 58 64 66
37 34 34 35 35 34 33 34 33 33 35 38 43 34 24 25 26 30 29 33 33 32 26 25 23 21 25 31 31 28 27 30 30 28 23 28 35 42 49 54 60 63 66
38 38 37 35 32 32 33 33 31 34 37 39 36 29 27 27 27 30 31 37 37 38 31 22 26 28 36 31 34 33 33 33 32 31 30 33 38 44 51 58 65 68 69
41 40 38 35 32 31 32 31 34 38 39 40 32 28 25 26 26 31 37 41 42 44 44 40 31 23 30 33 36 32 35 30 34 35 40 39 37 46 60 60 63 69 70
43 43 39 36 34 33 32 34 37 42 41 37 32 32 31 30 31 32 35 37 43 48 46 44 42 24 24 30 39 38 32 32 36 43 47 42 42 51 62 63 70 73 70
Wind_Direction
91 84 87 85 79 86 84 77 72 75 78 61 58 54 51 49 54 52 52 50 38 42 35 36 33 31 22 11 14 356 318 301 268 276 288 267 261 261 264 269 273 279 282
88 87 83 84 71 86 85 83 73 75 66 59 58 53 48 51 59 55 54 38 41 38 41 30 28 31 24 12 16 6 360 322 299 280 261 263 266 261 262 267 271 273 280
89 86 91 97 81 76 89 82 73 65 65 59 58 55 62 58 67 62 48 63 40 53 33 39 32 33 27 31 23 6 15 15 343 303 299 283 273 269 278 272 271 271 273
90 93 92 89 82 75 75 82 78 66 66 60 58 63 61 60 75 69 55 39 58 57 51 53 54 45 38 39 38 36 30 28 22 21 328 314 299 293 281 280 278 283 282
98 91 82 82 78 78 75 79 81 75 70 68 73 72 83 77 67 59 40 55 67 54 60 57 57 58 54 52 46 52 52 57 56 55 38 16 357 338 304 289 284 281 280
110 102 94 87 81 75 73 72 72 73 66 60 61 62 66 62 60 45 39 59 56 62 59 61 63 68 61 60 56 54 65 65 68 66 66 64 66 53 32 357 312 295 289
118 101 86 82 82 81 78 72 63 64 62 52 56 53 52 54 47 45 36 45 39 45 44 54 62 64 65 57 58 61 61 61 61 63 52 52 46 48 34 41 33 19 1
122 108 100 93 82 74 79 79 70 62 62 52 51 45 45 49 104 18 37 51 45 34 39 44 37 58 63 60 61 55 59 57 50 50 44 48 49 51 48 38 33 31 30
137 126 103 87 79 82 78 76 74 66 62 50 45 37 31 30 20 17 25 30 33 353 356 16 20 41 66 65 56 52 43 54 51 42 38 34 37 41 43 42 37 34 31
153 139 123 109 95 88 84 77 71 70 59 47 34 23 18 19 25 23 23 17 15 8 328 319 331 339 43 41 34 42 43 36 35 35 27 33 37 32 27 30 34 30 26
167 155 145 134 107 91 89 85 84 85 82 65 46 9 359 1 1 359 360 360 5 8 5 333 319 319 327 41 42 33 16 33 9 11 17 23 29 21 24 22 19 19 16
172 163 158 139 110 84 70 60 48 31 15 2 358 356 353 351 346 345 346 347 350 355 359 0 337 304 292 297 345 14 358 346 22 18 5 12 16 17 11 13 15 9 8
182 175 171 172 177 263 328 335 335 329 326 325 328 334 339 334 333 337 340 338 340 344 345 347 347 312 296 290 304 313 327 351 5 7 4 4 6 13 7 4 5 5 5
191 201 212 215 243 276 288 298 318 322 321 321 317 320 327 332 335 335 335 335 335 335 332 331 327 326 315 278 278 296 321 331 346 6 9 4 3 1 4 4 1 5 3
206 214 225 238 252 261 272 276 289 307 315 322 322 324 329 333 332 330 331 331 328 326 321 317 314 311 306 290 281 284 296 309 318 344 5 8 360 357 357 354 358 3 3
225 224 231 233 241 250 266 265 288 308 323 332 329 327 329 330 327 326 327 323 320 317 314 314 313 306 298 282 272 266 279 295 315 320 341 356 2 354 354 355 360 360 3
233 245 246 242 240 250 261 269 287 306 319 336 332 330 328 326 323 323 320 318 316 318 319 322 323 313 295 286 271 261 272 297 307 313 326 353 356 350 347 351 358 359 2
237 241 245 245 244 252 264 276 291 301 318 326 326 326 325 323 321 320 319 321 318 322 329 328 327 315 300 283 263 274 281 304 307 300 333 347 352 350 347 345 355 356 358
239 241 245 246 248 256 267 282 290 303 313 317 321 323 323 323 321 320 319 321 321 323 325 325 324 309 299 248 251 280 302 326 329 317 315 337 336 341 349 351 353 354 352
243 245 250 253 254 263 271 281 293 301 308 312 319 321 322 322 322 326 326 321 320 318 309 324 322 289 272 285 289 304 311 318 341 324 328 334 342 348 345 347 349 348 352
246 250 252 258 263 266 273 282 292 298 303 312 317 318 320 321 318 322 326 326 328 325 311 316 316 291 287 289 287 298 304 309 333 322 323 322 343 350 354 354 351 347 347
246 251 257 262 268 275 282 288 292 297 305 311 312 321 319 320 319 326 336 339 333 335 324 310 292 277 275 281 292 306 312 319 320 329 321 319 338 340 347 346 347 349 347
253 259 265 269 275 279 284 286 290 298 303 309 317 318 317 316 327 333 343 346 352 352 337 317 294 272 289 286 287 299 307 309 311 321 319 324 336 334 337 344 347 344 344
252 258 264 267 270 275 278 284 291 296 303 309 312 308 307 307 324 340 344 347 347 351 343 331 319 297 277 274 281 293 295 298 301 311 316 312 321 328 334 336 341 337 336
254 261 263 264 268 270 281 288 291 295 302 307 297 295 302 306 324 342 341 343 342 345 337 335 325 311 287 274 269 281 291 290 294 304 309 304 317 328 330 334 331 337 335
255 259 261 264 267 275 280 286 291 298 301 299 294 292 294 311 327 333 339 338 338 340 337 326 327 310 298 288 267 274 286 286 297 302 308 312 315 324 331 328 326 328 332
Height
10988 10987 10984 10984 10985 10984 10982 10980 10978 10977 10976 10972 10970 10967 10964 10964 10962 10960 10956 10953 10951 10947 10944 10939 10935 10929 10922 10915 10911 10908 10907 10906 10906 10906 10906 10907 10907 10907 10907 10907 10907 10906 10905
10992 10990 10990 10991 10991 10989 10987 10986 10983 10983 10980 10977 10975 10971 10968 10968 10967 10965 10963 10958 10955 10951 10947 10942 10936 10930 10923 10915 10910 10906 10904 10903 10903 10904 10904 10904 10904 10903 10903 10904 10904 10904 10904
10996 10993 10995 10997 10995 10991 10989 10989 10987 10987 10984 10981 10979 10975 10973 10973 10973 10971 10968 10963 10960 10955 10950 10944 10938 10931 10925 10918 10912 10906 10904 10901 10900 10901 10903 10903 10903 10903 10903 10902 10901 10900 10900
11000 11001 11001 11001 10999 10995 10994 10992 10992 10990 10989 10986 10984 10982 10979 10979 10977 10975 10972 10967 10964 10959 10954 10948 10944 10935 10930 10923 10916 10909 10904 10901 10900 10900 10900 10901 10902 10903 10901 10900 10899 10898 10897
11006 11006 11006 11004 11004 11001 11000 10998 10996 10996 10994 10992 10990 10988 10985 10985 10982 10980 10976 10973 10968 10964 10961 10955 10951 10942 10938 10929 10922 10917 10913 10909 10906 10904 10902 10901 10901 10899 10898 10898 10897 10895 10894
11011 11010 11009 11008 11007 11005 11004 11002 11001 10999 10997 10996 10994 10992 10990 10988 10987 10983 10980 10978 10974 10970 10965 10960 10955 10948 10945 10939 10933 10927 10924 10921 10919 10914 10911 10907 10907 10904 10900 10898 10896 10896 10894
11012 11012 11010 11010 11011 11009 11008 11005 11004 11002 11002 11001 10998 10996 10994 10991 10990 10987 10984 10982 10979 10975 10972 10968 10961 10954 10949 10946 10940 10936 10934 10931 10928 10924 10920 10917 10914 10909 10906 10902 10899 10895 10892
11013 11013 11013 11013 11013 11012 11011 11008 11007 11005 11004 11004 11001 11000 10998 10995 10993 10991 10988 10984 10982 10980 10977 10974 10968 10961 10955 10951 10946 10941 10939 10936 10933 10930 10926 10922 10918 10913 10909 10904 10900 10896 10892
11014 11015 11015 11014 11014 11013 11012 11011 11010 11008 11007 11005 11003 11002 11000 10997 10995 10991 10989 10987 10984 10983 10980 10976 10973 10968 10961 10956 10950 10948 10948 10941 10937 10932 10929 10924 10920 10915 10911 10907 10902 10898 10893
11015 11015 11015 11015 11015 11014 11013 11012 11011 11010 11008 11006 11005 11003 11001 11000 10996 10993 10989 10988 10986 10982 10978 10974 10972 10971 10965 10959 10953 10949 10946 10947 10943 10939 10934 10928 10923 10919 10914 10909 10904 10899 10894
11014 11014 11014 11014 11014 11014 11013 11013 11013 11012 11010 11009 11008 11006 11003 10999 10996 10991 10989 10987 10984 10981 10977 10973 10970 10968 10966 10960 10954 10950 10947 10946 10945 10940 10934 10928 10922 10918 10911 10907 10901 10894 10888
11012 11013 11014 11014 11013 11013 11013 11013 11013 11011 11010 11009 11008 11007 11005 11002 10999 10995 10991 10988 10984 10981 10978 10975 10968 10965 10964 10960 10956 10951 10947 10946 10943 10939 10935 10929 10923 10915 10909 10902 10896 10890 10884
11012 11013 11014 11013 11012 11012 11012 11012 11012 11010 11010 11009 11007 11005 11003 11000 10996 10994 10991 10987 10983 10979 10976 10974 10969 10965 10961 10958 10953 10950 10946 10944 10942 10938 10934 10929 10923 10916 10907 10901 10893 10885 10879
11011 11012 11012 11012 11012 11012 11011 11011 11010 11009 11009 11007 11005 11001 10998 10997 10994 10991 10989 10984 10979 10974 10970 10967 10964 10962 10958 10953 10950 10948 10944 10940 10937 10935 10931 10926 10920 10913 10905 10897 10890 10882 10874
11008 11010 11010 11010 11010 11009 11009 11009 11010 11010 11008 11005 11003 11000 10996 10992 10989 10987 10983 10980 10975 10970 10963 10960 10956 10954 10950 10946 10944 10943 10940 10937 10934 10932 10926 10921 10917 10912 10904 10896 10888 10879 10870
11005 11006 11007 11008 11008 11007 11007 11008 11008 11007 11006 11004 11002 10999 10995 10991 10987 10981 10977 10972 10968 10963 10957 10950 10945 10941 10939 10937 10936 10936 10934 10932 10930 10927 10922 10917 10912 10909 10902 10893 10884 10877 10866
11003 11003 11003 11004 11004 11004 11004 11004 11003 11003 11003 11002 10998 10994 10992 10987 10983 10979 10973 10966 10958 10951 10946 10942 10937 10933 10929 10928 10928 10929 10929 10928 10926 10926 10920 10915 10909 10906 10897 10889 10881 10874 10863
11000 11001 11000 11000 11000 11000 10999 11000 11000 11000 10999 10997 10993 10990 10986 10981 10976 10970 10963 10958 10952 10947 10939 10932 10930 10925 10922 10922 10921 10924 10924 10923 10918 10920 10916 10911 10906 10902 10893 10884 10879 10870 10859
10995 10994 10994 10995 10995 10995 10996 10995 10996 10995 10994 10991 10988 10984 10980 10975 10968 10961 10955 10949 10943 10941 10938 10931 10923 10920 10918 10917 10917 10918 10918 10917 10912 10913 10913 10908 10903 10898 10892 10882 10874 10866 10857
10987 10988 10990 10990 10991 10991 10991 10991 10991 10990 10988 10986 10983 10979 10974 10968 10960 10953 10949 10943 10939 10936 10932 10928 10921 10917 10917 10917 10917 10916 10916 10913 10911 10908 10907 10902 10897 10893 10886 10880 10871 10862 10854
10981 10983 10985 10986 10986 10986 10986 10986 10986 10985 10982 10980 10976 10973 10968 10964 10958 10951 10944 10937 10933 10931 10928 10925 10921 10918 10914 10912 10911 10912 10911 10909 10906 10903 10900 10896 10892 10887 10879 10872 10866 10858 10849
10975 10976 10977 10979 10980 10980 10981 10981 10979 10978 10976 10974 10971 10967 10962 10956 10952 10949 10944 10937 10930 10925 10921 10918 10917 10915 10911 10908 10905 10907 10906 10903 10901 10898 10893 10889 10886 10879 10873 10868 10861 10851 10845
10969 10970 10972 10973 10973 10973 10973 10973 10972 10971 10969 10966 10962 10960 10958 10954 10948 10943 10939 10934 10930 10924 10918 10914 10911 10910 10905 10903 10902 10901 10900 10897 10893 10890 10886 10880 10877 10872 10866 10860 10856 10848 10840
10962 10962 10964 10965 10967 10968 10967 10966 10965 10964 10963 10960 10956 10953 10951 10947 10943 10939 10934 10929 10925 10920 10915 10911 10907 10902 10897 10896 10895 10894 10891 10889 10885 10882 10880 10875 10870 10866 10859 10853 10846 10841 10835
10952 10953 10955 10957 10960 10961 10961 10960 10958 10955 10955 10953 10950 10948 10944 10940 10937 10932 10925 10920 10915 10913 10908 10904 10900 10895 10890 10888 10887 10887 10884 10882 10878 10875 10871 10867 10864 10860 10854 10848 10844 10838 10830
10943 10944 10946 10950 10952 10953 10954 10953 10951 10946 10946 10944 10942 10940 10936 10933 10929 10926 10922 10919 10914 10908 10902 10896 10891 10888 10885 10880 10877 10878 10879 10877 10873 10870 10864 10861 10858 10853 10848 10841 10834 10831 10825